Preview of NWS' New Version of Forecast
This preview is not operational and should not be used for support decisions.

Regional Weather Roundup (RWR)

Issued by National Weather Service (NWS)

                            
000
ASUS45 KCYS 181610
RWRWY 

WYOMING REGIONAL WEATHER ROUNDUP
NATIONAL WEATHER SERVICE CHEYENNE WY
1000 AM MDT SUN AUG 18 2019

NOTE:  "FAIR" INDICATES FEW OR NO CLOUDS BELOW 12,000 FEET
WITH NO SIGNIFICANT WEATHER AND/OR OBSTRUCTIONS TO VISIBILITY.

WYZ001-181700-
YELLOWSTONE NATIONAL PARK
  
CITY           SKY/WX    TMP DP  RH WIND       PRES   REMARKS
LK YELLOWSTONE   N/A     58  37  45 VRB3      30.15S                  
W YELLOWSTONE  NOT AVBL                                               

$$
WYZ002>013-054>058-071-098>099-181700-
NORTHERN WYOMING
  
CITY           SKY/WX    TMP DP  RH WIND       PRES   REMARKS
JACKSON        FAIR      66  37  34 S13G21    30.10S                  
CODY           FAIR      65  46  50 S7        29.96F                  
GREYBULL       FAIR      63  47  55 CALM      29.94F                  
WORLAND        FAIR      63  47  55 CALM      29.95F                  
SHERIDAN       FAIR      68  49  50 E3        29.90F                  
BUFFALO        FAIR      64  49  57 SE9       29.96S                  
GILLETTE       FAIR      63  52  67 S15       29.95R                  
HULETT         FAIR      63  52  67 SW13G20   29.97                   
NEWCASTLE      CLOUDY    59  50  72 SE12      30.02                   

$$
WYZ014>020-022>026-101>103-181700-
CENTRAL WYOMING
  
CITY           SKY/WX    TMP DP  RH WIND       PRES   REMARKS
BIG PINEY      FAIR      61  28  28 E5        30.16R                  
PINEDALE       FAIR      61  30  31 CALM      30.17                   
DUBOIS         FAIR      64  28  25 NW20G30   30.08                   
LANDER         FAIR      61  47  59 CALM      30.02F                  
RIVERTON       FAIR      63  48  58 NW8       30.02S                  
CASPER         FAIR      65  46  50 VRB5      30.00F                  
DOUGLAS        FAIR      67  51  56 SE15      29.99F                  

$$
WYZ021-027>030-104>119-181700-
SOUTHERN WYOMING
  
CITY           SKY/WX    TMP DP  RH WIND       PRES   REMARKS
EVANSTON       FAIR      69  33  26 SW10      30.18R                  
KEMMERER       FAIR      66  27  22 W14       30.18                   
ROCK SPRINGS   FAIR      70  31  23 W16       30.14S                  
DIXON          FAIR      63  33  33 E12       30.17S                  
RAWLINS        FAIR      73  27  18 W16       30.12R                  
SARATOGA       FAIR      72  32  23 W15       30.17R                  
LARAMIE        FAIR      72  29  20 SW13G22   30.14R                  
CHEYENNE       FAIR      62  50  64 S20       30.10F                  
TORRINGTON     PTSUNNY   68  55  63 S17       30.01F                  
PINE BLUFFS    CLOUDY    59  52  77 S9        30.10S                  

$$